Location: Narrabri
(30.3170°S, 149.7830°E)
Time: 16:20:32
(UTC+11:00)

Tiangong 2 - Pass Details

Date: 15 October 2017
Orbit: 388 x 392 km, 42.8° (Epoch: 19 October)

Event Time Altitude Azimuth Distance (km) Brightness Sun altitude
Rises 21:29:23 0° 247° (WSW) 2,290 6.2 -28.7°
Reaches altitude 10° 21:31:37 10° 258° (WSW) 1,428 4.8 -29.1°
Enters shadow 21:32:04 13° 262° (W) 1,266 4.4 -29.2°
